TimeEDT,TemperatureF,Dew PointF,Humidity,Sea Level PressureIn,VisibilityMPH,Wind Direction,Wind SpeedMPH,Gust SpeedMPH,PrecipitationIn,Events,Conditions,WindDirDegrees,DateUTC
12:56 AM,64.9,63.0,93,30.03,7.0,Calm,Calm,-,N/A,,Clear,0,2012-10-06 04:56:00
1:56 AM,64.0,63.0,96,30.02,6.0,Calm,Calm,-,N/A,,Clear,0,2012-10-06 05:56:00
2:56 AM,64.0,63.0,96,30.00,5.0,Calm,Calm,-,N/A,,Clear,0,2012-10-06 06:56:00
3:56 AM,63.0,63.0,100,29.99,5.0,Calm,Calm,-,N/A,,Clear,0,2012-10-06 07:56:00
4:56 AM,63.0,62.1,97,29.98,5.0,Calm,Calm,-,N/A,,Clear,0,2012-10-06 08:56:00
5:13 AM,62.6,60.8,94,29.98,7.0,Calm,Calm,-,N/A,,Scattered Clouds,0,2012-10-06 09:13:00
5:39 AM,60.8,60.8,100,29.99,1.8,Calm,Calm,-,N/A,,Partly Cloudy,0,2012-10-06 09:39:00
5:43 AM,60.8,60.8,100,29.99,0.8,Calm,Calm,-,N/A,,Clear,0,2012-10-06 09:43:00
5:50 AM,62.6,62.6,100,29.99,1.2,Calm,Calm,-,0.01,,Clear,0,2012-10-06 09:50:00
5:56 AM,63.0,62.1,97,29.99,6.0,Calm,Calm,-,0.01,,Clear,0,2012-10-06 09:56:00
6:56 AM,64.0,63.0,96,29.99,7.0,Calm,Calm,-,N/A,,Clear,0,2012-10-06 10:56:00
7:24 AM,62.6,62.6,100,29.99,1.2,Calm,Calm,-,N/A,,Clear,0,2012-10-06 11:24:00
7:29 AM,62.6,62.6,100,29.99,4.0,Calm,Calm,-,N/A,,Clear,0,2012-10-06 11:29:00
7:56 AM,64.0,64.0,100,29.99,8.0,Calm,Calm,-,N/A,,Clear,0,2012-10-06 11:56:00
8:56 AM,72.0,64.9,78,29.99,10.0,NW,3.5,-,N/A,,Clear,320,2012-10-06 12:56:00
9:56 AM,75.0,64.0,69,30.00,10.0,NW,4.6,-,N/A,,Clear,320,2012-10-06 13:56:00
10:56 AM,77.0,62.1,60,29.99,10.0,Calm,Calm,-,N/A,,Clear,0,2012-10-06 14:56:00
11:56 AM,79.0,60.1,52,29.98,10.0,WSW,9.2,-,N/A,,Clear,240,2012-10-06 15:56:00
12:56 PM,80.1,61.0,52,29.96,10.0,SSW,10.4,-,N/A,,Clear,210,2012-10-06 16:56:00
1:56 PM,79.0,63.0,58,29.93,10.0,SW,10.4,-,N/A,,Clear,220,2012-10-06 17:56:00
2:56 PM,80.1,63.0,56,29.92,10.0,SSW,11.5,-,N/A,,Clear,200,2012-10-06 18:56:00
3:56 PM,78.1,64.0,62,29.91,10.0,SSW,13.8,-,N/A,,Clear,210,2012-10-06 19:56:00
4:56 PM,78.1,64.9,64,29.90,10.0,South,11.5,-,N/A,,Clear,190,2012-10-06 20:56:00
5:56 PM,77.0,64.9,66,29.91,10.0,SW,10.4,-,N/A,,Clear,220,2012-10-06 21:56:00
7:56 PM,73.9,66.0,76,29.94,10.0,SW,6.9,-,N/A,,Clear,220,2012-10-06 23:56:00
8:56 PM,73.9,66.0,76,29.96,10.0,SW,8.1,-,N/A,,Clear,220,2012-10-07 00:56:00
9:56 PM,73.9,66.0,76,29.96,10.0,SW,9.2,-,N/A,,Clear,220,2012-10-07 01:56:00
10:56 PM,73.9,66.0,76,29.96,10.0,SSW,6.9,-,N/A,,Clear,210,2012-10-07 02:56:00
11:56 PM,73.0,66.0,79,29.96,10.0,SW,6.9,-,N/A,,Clear,220,2012-10-07 03:56:00